Flag for Germany Weather past 2 weeks in Norderstedt, Schleswig-Holstein, Germany

Now
64 °F

Scattered clouds.


Feels Like: 64 °F
Forecast: 53 / 78 °F
Wind: 15 mph from West

Location: Hamburg-Fuhlsbuettel

Current Time: Jul 6, 2015 at 9:50:14 AM

Latest Report: Jul 6, 2015 at 9:20 AM


Visibility: N/A

Pressure: 30.04 "Hg

Humidity: 78%

Dew point: 57 °F

Location of NorderstedtLocation

Historic Weather in Norderstedt — Graph

°F

Norderstedt temperature yesterday

Maximum temperature yesterday: 86 °F (at 12:20 PM)
Minimum temperature yesterday: 68 °F (at 2:50 AM)
Average temperature yesterday: 76 °F

Past Weeks' High & Low Weather Summary

 TemperatureHumidityPressure
High97 °F (Jul 4, 3:20 PM)100% (Jun 22, 3:20 AM)30.27 "Hg (Jun 22, 3:20 AM)
Low50 °F (Jun 22, 9:20 PM)23% (Jul 4, 3:50 PM)29.62 "Hg (Jun 23, 2:50 AM)
Average66 °F70%30.05 "Hg
* Reported Jun 21 8:20 AM — Jul 6 8:50 AM, Norderstedt, Weather by CustomWeather, © 2015

Note: Actual official high and low records may vary slightly from our data, if they occured in-between our weather recording intervals... More about our weather records

Advertising

Norderstedt weather history for previous 24 hours

 ConditionsComfort  
Time TempWeatherWind HumidityBarometerVisibility
8:50 AM
Mon, Jul 6
64 °FPartly sunny.16 mph78%30.04 "HgN/A
8:20 AM63 °FPartly sunny.16 mph83%30.04 "HgN/A
7:50 AM63 °FPartly sunny.14 mph83%30.01 "HgN/A
7:20 AM63 °FPartly sunny.14 mph83%30.01 "HgN/A
6:50 AM61 °FScattered clouds.12 mph88%30.01 "HgN/A
6:20 AM61 °FPassing clouds.10 mph88%30.01 "HgN/A
5:20 AM61 °FPassing clouds.10 mph88%30.01 "HgN/A
4:50 AM63 °FPartly cloudy.12 mph83%30.01 "HgN/A
4:20 AM63 °FPassing clouds.10 mph88%30.01 "HgN/A
3:50 AM63 °FPartly cloudy.8 mph88%30.01 "HgN/A
3:20 AM64 °FPassing clouds.12 mph83%29.98 "HgN/A
2:50 AM64 °FPassing clouds.13 mph83%29.98 "HgN/A
2:20 AM64 °FPassing clouds.10 mph88%29.98 "HgN/A
1:50 AM66 °FPassing clouds.10 mph83%29.95 "HgN/A
1:20 AM66 °FPassing clouds.9 mph88%29.95 "HgN/A
12:50 AM66 °FPartly cloudy.9 mph88%29.95 "HgN/A
12:20 AM68 °FPassing clouds.8 mph83%29.92 "HgN/A
11:50 PM
Sun, Jul 5
70 °FScattered showers. Passing clouds.9 mph94%29.92 "HgN/A
11:20 PM70 °FScattered showers. Passing clouds.6 mph94%29.89 "Hg6 mi
10:50 PM70 °FScattered showers. Scattered clouds.6 mph94%29.89 "Hg6 mi
10:20 PM70 °FThunderstorms. Broken clouds.9 mph94%29.89 "Hg6 mi
9:50 PM73 °FThunderstorms. Broken clouds.17 mph83%29.92 "Hg5 mi
9:20 PM73 °FScattered clouds.8 mph89%29.86 "HgN/A
8:50 PM77 °FSprinkles. Scattered clouds.6 mph79%29.83 "HgN/A
8:20 PM77 °FThunderstorms. Partly sunny.8 mph94%29.86 "Hg4 mi
7:50 PM77 °FThundershowers. Partly sunny.7 mph89%29.86 "Hg4 mi
7:20 PM79 °FSprinkles. Broken clouds.7 mph84%29.86 "Hg4 mi
6:50 PM79 °FSprinkles. Broken clouds.6 mph84%29.89 "Hg4 mi
6:20 PM79 °FRain showers. Broken clouds.12 mph84%29.86 "Hg4 mi
5:50 PM81 °FScattered showers. Partly sunny.2 mph74%29.92 "Hg4 mi
5:20 PM81 °FScattered clouds.3 mph79%29.92 "Hg4 mi
4:50 PM77 °FRain showers. Partly sunny.6 mph89%29.95 "Hg5 mi
4:20 PM81 °FSprinkles. Partly sunny.2 mph74%29.95 "Hg6 mi
3:50 PM81 °FPartly sunny.9 mph70%29.98 "Hg5 mi
3:20 PM81 °FSprinkles. Partly sunny.7 mph74%29.98 "HgN/A
2:50 PM82 °FSprinkles. Partly sunny.6 mph70%30.01 "HgN/A
2:20 PM84 °FScattered showers. Partly sunny.9 mph55%30.01 "HgN/A
1:50 PM86 °FBroken clouds.7 mph55%30.01 "HgN/A
1:20 PM84 °FPartly sunny.7 mph58%30.01 "HgN/A
12:50 PM86 °FPassing clouds.6 mph59%30.01 "HgN/A
12:20 PM86 °FSunny.6 mph59%30.01 "Hg10 mi
11:50 AM84 °FPassing clouds.5 mph58%30.04 "HgN/A
11:20 AM84 °FSunny.3 mph62%30.04 "Hg10 mi
10:50 AM81 °FClear.5 mph66%30.04 "Hg6 mi
10:20 AM81 °FClear.5 mph70%30.04 "Hg4 mi
9:50 AM77 °FClear.2 mph74%30.07 "Hg4 mi
9:20 AM75 °FFog.6 mph78%30.04 "Hg3 mi
Weather by CustomWeather, © 2015

See weather overviewHow to use our weather pages